Location: Columbia
(38.9520°N, 92.3340°W)
Time: 08:42:46
(UTC-05:00)

Meteor 1-4 Rocket - Visible Passes

Search period start: 01 September 2014 00:00
Search period end: 11 September 2014 00:00
Orbit: 470 x 536 km, 81.2° (Epoch: 31 August)

Date Brightness Start Highest point End Pass type
(mag) Time Alt. Az. Time Alt. Az. Time Alt. Az.
01 Sep 5.1 22:32:23 10° NNW 22:33:53 22° NNW 22:33:53 22° NNW visible
02 Sep 4.6 22:13:26 10° N 22:15:19 27° NNW 22:15:19 27° NNW visible
03 Sep 4.1 21:54:31 10° N 21:56:46 33° N 21:56:46 33° N visible
04 Sep 3.8 21:35:40 10° N 21:38:15 36° NNE 21:38:15 36° NNE visible
05 Sep 3.7 21:16:52 10° N 21:19:46 34° NE 21:19:46 34° NE visible
05 Sep 5.9 22:53:55 10° WNW 22:54:32 12° WNW 22:54:32 12° WNW visible
06 Sep 3.8 20:58:07 10° NNE 21:01:18 28° ENE 21:01:18 28° ENE visible
06 Sep 5.5 22:34:18 10° NW 22:36:04 16° WNW 22:36:04 16° WNW visible
07 Sep 4.1 20:39:28 10° NNE 20:42:35 22° ENE 20:42:53 22° E visible
07 Sep 5.0 22:14:57 10° NW 22:17:39 22° W 22:17:39 22° W visible
08 Sep 4.4 20:20:56 10° NNE 20:23:34 17° ENE 20:24:30 16° E visible
08 Sep 4.4 21:55:43 10° NNW 21:59:12 30° W 21:59:16 30° W visible
09 Sep 4.7 20:02:39 10° NE 20:04:30 13° ENE 20:06:10 11° E visible
09 Sep 3.9 21:36:35 10° NNW 21:40:18 41° W 21:40:57 37° WSW visible
10 Sep 3.3 21:17:30 10° NNW 21:21:23 56° W 21:22:41 36° SSW visible
